Location: Le Plessis-aux-Bois
(49.0033°N, 2.7691°E)
Time: 15:27:24
(UTC+00:00)

Daily predictions for brighter satellites

Satellite Brightness Start Highest point End
(mag) Time Altitude Azimuth Time Altitude Azimuth Time Altitude Azimuth
USA 281 3.3 18:24:45 10° NNE 18:31:19 66° ESE 18:37:49 10° SSW
ATLAS 3B R/B 4.5 18:27:53 10° WNW 18:33:51 27° NNW 18:40:06 10° NE
Cosmos 1707 2.6 18:32:10 10° N 18:36:00 73° E 18:39:45 10° SSE
NOSS 3-2 (A) 4.1 18:28:43 10° NW 18:36:02 75° NE 18:44:37 10° SE
Cosmos 1726 3.6 18:34:12 10° SE 18:36:27 16° E 18:38:43 10° NE
Cosmos 2016 Rocket 4.3 18:32:17 10° N 18:38:07 44° ENE 18:43:56 10° SE
BREEZE-M DEB (TANK) 3.6 18:29:54 10° W 18:39:43 85° N 18:42:56 10° E
CZ-4B R/B 3.3 18:34:54 10° SSE 18:40:35 79° ENE 18:46:13 10° NNW
Meteor 1-21 4.3 18:35:05 10° N 18:40:42 64° ENE 18:46:17 10° SSE
Cosmos 2322 3.8 18:35:16 10° NNW 18:40:59 90° SW 18:46:39 10° SSE
Okean-O 3.8 18:39:07 10° ESE 18:42:42 24° ENE 18:46:16 10° N
Cosmos 2173 Rocket 4.1 18:36:38 10° N 18:43:03 72° E 18:49:24 10° SSE
Cosmos 1805 4.4 18:40:13 10° SE 18:43:10 22° E 18:46:08 10° NE
CENTAUR R/B 3.3 18:35:29 10° NW 18:43:37 84° NE 18:52:42 10° SE
Cosmos 2123 Rocket 4.4 18:37:52 10° SSE 18:43:42 42° E 18:49:35 10° NNE
Cosmos 2219 Rocket 2.6 18:38:48 10° NNW 18:44:28 69° WSW 18:50:06 10° SSE
Cosmos 1980 4.4 18:39:31 10° NNW 18:44:49 38° NE 18:50:05 10° ESE
YAOGAN 1 3.0 18:42:17 10° S 18:46:35 69° WSW 18:50:55 10° NNW
NOSS 3-2 (C) 4.3 18:40:05 10° NW 18:47:12 58° NE 18:55:30 10° ESE
Lacrosse 5 rocket 2.9 18:44:29 10° SSE 18:47:19 17° SE 18:50:05 10° E
Cosmos 1000 Rocket 4.5 18:42:24 10° S 18:48:28 67° E 18:54:34 10° NNE
Okean O Rocket 1.6 18:44:40 10° SSE 18:49:02 66° ENE 18:53:25 10° N
Cosmos 2333 Rocket 3.5 18:45:04 10° NW 18:50:31 44° WSW 18:55:55 10° S
Cosmos 2242 Rocket 3.9 18:46:35 10° N 18:51:02 47° ENE 18:55:25 10° SSE
Cosmos 1867 4.3 18:47:42 10° S 18:52:24 31° ESE 18:57:08 10° NE
Meteor 2-9 Rocket 4.3 18:47:03 10° SSW 18:52:33 83° WNW 18:57:58 10° N
CSL-04 Debris 4.5 18:47:41 10° SE 18:52:51 48° ENE 18:58:05 10° N
Okean 3 3.6 18:49:55 10° NNW 18:54:09 80° W 18:58:23 10° S
Cosmos 1371 Rocket 4.2 18:48:55 10° SSW 18:54:12 80° WNW 18:59:28 10° NNE
SJ-6B 3.0 18:51:02 10° SSE 18:54:49 50° ENE 18:58:33 10° N
MINOTAUR 4 R/B 4.0 18:51:27 10° NNE 18:54:50 54° ESE 18:58:11 10° S
Cosmos 2100 Rocket 4.1 18:48:52 10° N 18:55:18 90° S 19:01:37 10° S
Cosmos 1975 2.8 18:51:48 10° S 18:55:41 59° E 18:59:36 10° NNE
CZ-4C R/B 4.4 18:52:04 10° N 18:55:44 49° WNW 18:59:34 10° SW
Cosmos 2098 Rocket 4.0 18:51:58 10° SSE 18:57:18 54° E 19:03:39 10° NNE
Iridium 4 Rocket 3.4 18:54:44 10° N 18:58:41 39° E 19:02:36 10° SSE
USA 238 DEB 4.2 18:53:55 10° NW 19:00:59 56° NE 19:07:58 12° ESE
USA 238 4.2 18:54:01 10° NW 19:01:04 56° NE 19:08:04 12° ESE
COSMOS 2428 2.9 18:55:56 10° NNW 19:01:42 82° WSW 19:07:26 10° SSE
Cosmos 2056 Rocket 3.8 18:57:23 10° SSW 19:02:29 73° WNW 19:07:37 10° NNE
Cosmos 1626 2.9 18:59:15 10° NNW 19:02:45 52° W 19:06:12 10° S
Cosmos 1818 4.3 18:58:03 10° NW 19:03:22 54° WSW 19:08:37 10° SSE
Cosmos 2297 Rocket 3.0 19:00:45 10° SSE 19:05:26 28° ESE 19:10:08 10° NE
Okean 1-7 3.6 19:01:48 10° NNW 19:06:07 62° W 19:10:23 10° S
SL-14 R/B 3.6 19:02:38 10° N 19:06:18 41° ENE 19:09:56 10° SSE
Cosmos 1733 3.2 19:07:46 10° S 19:11:26 54° E 19:15:08 10° NNE
Cosmos 1850 Rocket 4.0 19:10:56 10° NNW 19:16:17 72° ENE 19:21:37 10° SSE
Cosmos 1271 Rocket 4.2 19:19:17 17° E 19:19:17 17° E 19:21:20 10° NE
Cosmos 1933 Rocket 4.1 19:15:09 10° SSW 19:19:25 63° WNW 19:23:46 10° N
ISS -3.2 19:17:13 10° W 19:20:30 51° N 19:22:45 18° ENE
Cosmos 2227 Rocket 3.2 19:17:09 10° SSE 19:21:29 23° ESE 19:25:50 10° NE
Landsat 5 4.3 19:18:20 10° NE 19:21:37 26° E 19:23:51 16° SE
SL-27 R/B 3.9 19:19:42 10° SW 19:22:48 38° WNW 19:25:54 10° N
Cosmos 1110 Rocket 4.2 19:18:50 10° S 19:23:46 45° ESE 19:28:41 10° NE
Meteor 2-10 3.8 19:22:33 10° S 19:27:32 71° E 19:32:37 10° NNE
SPOT 1/Viking Rocket 3.7 19:24:21 13° SE 19:28:50 52° ENE 19:33:54 10° N
Cosmos 1869 Rocket 3.4 19:24:52 10° S 19:29:11 87° E 19:33:33 10° N
USA 186 2.0 19:28:12 10° S 19:31:17 67° WSW 19:34:25 10° NNW
IGS 5A 4.5 19:27:47 10° S 19:31:45 47° W 19:35:46 10° NNW
Cosmos 2233 Rocket 3.9 19:25:55 10° N 19:32:04 68° E 19:38:12 10° SSE
SL-16 R/B 3.2 19:28:16 10° NNW 19:33:18 31° NE 19:36:05 21° E
USA 215 3.8 19:27:45 10° ENE 19:34:08 58° NNW 19:40:31 10° W
CZ-4 R/B 3.1 19:31:48 10° SSW 19:35:17 32° W 19:38:49 10° NNW
Cosmos 1331 Rocket 4.0 19:34:43 10° S 19:39:43 55° ESE 19:44:47 10° NNE
Cosmos 1452 Rocket 3.4 19:34:43 10° SSW 19:39:59 80° ESE 19:45:18 10° NNE
Cosmos 2061 Rocket 4.1 19:34:58 10° N 19:41:28 84° W 19:47:52 10° S
GEOS 3 Rocket 4.1 19:39:16 10° NE 19:44:37 67° NW 19:49:57 10° SW
Resurs 01 Rocket 1.6 19:48:46 25° SSE 19:51:14 67° ENE 19:55:38 10° N
SL-4 R/B 3.7 19:50:11 10° SSW 19:52:39 21° SSE 19:52:39 21° SSE
Cosmos 968 Rocket 3.4 19:50:07 10° NNW 19:55:17 65° ENE 19:57:36 32° SE
Cosmos 1741 Rocket 4.5 19:50:27 10° NNW 19:55:36 60° WSW 20:00:15 12° S
CSL-04 Rocket 4.1 19:50:20 10° S 19:55:50 63° WSW 20:01:21 10° NNW
Okean 2 4.3 19:53:29 10° NNW 19:57:24 47° W 20:01:18 10° SSW
Cosmos 1766 3.0 20:02:14 30° S 20:04:00 75° E 20:07:49 10° NNE
ERS-1 Rocket 4.1 20:04:15 26° ENE 20:04:42 27° ENE 20:08:51 10° N
CZ-4C R/B 3.4 19:58:38 10° NW 20:05:06 45° NE 20:09:04 27° E
SWARM A 4.2 20:05:42 60° SSE 20:06:16 81° E 20:09:46 10° N
NOSS 3-4 (A) 3.6 20:01:47 10° S 20:06:59 40° ESE 20:12:34 10° NE
NOSS 3-4 (C) 3.6 20:01:56 10° S 20:07:05 39° ESE 20:12:39 10° NE
Cosmos 2237 Rocket 2.5 20:01:56 10° NNW 20:07:32 66° WSW 20:11:10 22° S
Cosmos 1674 Rocket 3.5 20:04:04 10° N 20:08:24 62° ENE 20:09:10 51° SE
IRS-1C Rocket 4.3 20:05:01 16° S 20:09:17 72° WSW 20:14:35 10° NNW
Cosmos 1733 Rocket 2.9 20:06:54 16° S 20:10:21 84° E 20:14:42 10° N
MetOp-B 4.3 20:08:47 39° ESE 20:10:29 55° ENE 20:15:44 10° N
Cosmos 1726 3.6 20:07:32 10° SW 20:10:47 36° WNW 20:14:05 10° N
BREEZE M DEB (TANK) 2.9 20:09:25 10° W 20:11:05 44° WNW 20:11:05 44° WNW
Ariane Rocket 3.3 20:12:10 42° E 20:13:08 47° ENE 20:18:00 10° N
CARTOSAT-1 3.4 20:14:07 54° SE 20:14:59 74° ENE 20:19:18 10° N
Meteor 2-13 Rocket 4.3 20:09:57 10° S 20:16:07 80° E 20:22:18 10° NNE
ATLAS CENTAUR R/B 4.2 20:00:23 10° SW 20:16:44 88° NW 20:24:08 10° NE
NOSS 8 (F) 4.5 20:14:18 10° NW 20:17:36 76° NE 20:17:40 76° ENE
Okean-O 3.7 20:15:11 13° SSW 20:18:55 43° W 20:23:10 10° NNW
Cosmos 1378 Rocket 3.4 20:14:31 10° N 20:18:57 82° E 20:19:53 55° SSE
MetOp-A 4.0 20:18:24 41° SSE 20:20:17 77° ENE 20:25:28 10° NNW
Meteor 1-15 Rocket 4.3 20:18:09 32° SSE 20:20:45 60° E 20:26:32 10° NNE
Terra 2.9 20:23:51 29° NE 20:23:51 29° NE 20:27:31 10° N
Spot 2 Rocket 4.1 20:23:48 37° ENE 20:23:57 37° ENE 20:28:38 10° N
Cosmos 1302 Rocket 3.9 20:19:42 10° S 20:24:55 66° ESE 20:30:11 10° NNE
Lacrosse 5 rocket 1.2 20:21:26 10° SW 20:25:43 87° SE 20:25:53 82° ENE
Okean O Rocket 4.5 20:23:12 10° SW 20:25:49 15° W 20:28:25 10° NW
Cosmos 2221 Rocket 3.7 20:21:56 10° NNW 20:26:22 73° W 20:27:35 46° SSW
ATLAS 3B R/B 4.3 20:20:41 10° NW 20:26:59 29° NNE 20:31:47 16° ENE
FALCON 9 R/B 4.0 20:09:25 10° WSW 20:28:29 37° SSW 20:31:38 29° SSE
H-2A R/B 2.7 20:29:06 60° ENE 20:29:06 60° ENE 20:33:23 10° N
Cosmos 1464 Rocket 4.0 20:26:21 10° N 20:32:42 68° ENE 20:34:31 47° SE
Cosmos 1867 4.2 20:30:24 10° SW 20:35:44 56° NW 20:41:09 10° NNE
Meteor 1-24 Rocket 3.8 20:30:49 10° N 20:36:46 73° ENE 20:38:07 54° SE
Cosmos 1025 Rocket 4.4 20:34:07 10° N 20:36:43 28° NE 20:36:43 28° NE
Cosmos 1943 4.2 20:34:24 10° NNW 20:39:20 30° NE 20:39:47 30° NE
Meteor 1-12 Rocket 4.1 20:36:40 30° S 20:39:42 84° E 20:45:27 10° NNE
Cosmos 1908 Rocket 4.4 20:41:17 39° NE 20:41:17 39° NE 20:44:15 10° NNE
SPOT 3 Rocket 3.5 20:41:28 61° E 20:41:41 62° ENE 20:46:51 10° N
Cosmos 1891 Rocket 4.4 20:37:07 10° N 20:43:17 83° W 20:45:40 41° S
Cosmos 2297 Rocket 2.8 20:43:36 10° SW 20:49:08 56° NW 20:54:44 10° NNE
SPOT 5 2.8 20:50:08 69° NNE 20:50:08 69° NNE 20:54:35 10° N
SJ 16-02 2.2 20:46:25 10° NNW 20:49:39 40° NNE 20:49:39 40° NNE
Cosmos 2346 Rocket 4.4 20:50:16 34° SSW 20:53:09 85° W 20:59:25 10° N
Cosmos 1271 Rocket 3.9 20:54:05 39° W 20:54:17 39° WNW 20:57:50 10° N
ISS -1.5 20:54:08 10° WNW 20:55:42 25° WNW 20:55:42 25° WNW
Cosmos 1975 Rocket 4.3 20:54:13 10° N 20:56:52 32° NNE 20:56:52 32° NNE
Cosmos 2219 3.0 20:57:39 55° SSW 20:58:57 88° ESE 21:04:37 10° NNE
Cosmos 1470 4.1 21:01:31 36° NNW 21:01:31 36° NNW 21:04:04 10° N
Cosmos 1486 Rocket 4.0 20:57:43 10° NNW 21:02:43 73° NNE 21:02:43 73° NNE
Cosmos 2227 Rocket 2.5 20:59:24 10° SW 21:05:03 66° WNW 21:10:42 10° NNE
Meteor 2-5 Rocket 4.1 21:02:29 10° NNW 21:08:14 63° W 21:09:27 51° SW
Cosmos 1816 Rocket 4.3 21:11:35 73° ENE 21:11:35 73° ENE 21:17:25 10° NNE
ADEOS Rocket 3.0 21:12:26 73° SE 21:13:04 81° ENE 21:20:10 10° NNW
Meteor 2-15 Rocket 4.5 21:07:24 10° NNW 21:13:33 75° W 21:14:20 66° SSW
Cosmos 1634 Rocket 4.4 21:08:31 10° N 21:14:03 49° NE 21:14:03 49° NE
USA 215 4.1 21:13:01 24° ENE 21:16:34 44° N 21:22:42 10° WNW
SL-16 R/B 2.5 21:12:11 10° NW 21:17:46 57° WSW 21:17:58 56° WSW
Resurs 01 Rocket 4.2 21:26:18 12° WSW 21:28:10 15° W 21:30:46 10° NW
Meteor 2-19 Rocket 4.4 21:31:35 80° NW 21:31:35 80° NW 21:37:29 10° N
Cosmos 2034 Rocket 4.1 21:28:09 10° NNW 21:34:16 65° W 21:34:31 64° WSW
Tsikada Rocket 4.2 21:42:20 62° NNE 21:42:20 62° NNE 21:47:23 10° N
ERS-1 Rocket 4.0 21:44:12 43° WNW 21:44:12 43° WNW 21:48:07 10° NNW
Cosmos 2263 Rocket 3.8 21:56:04 25° NNE 21:56:04 25° NNE 21:58:15 10° NNE
CZ-4C R/B 3.0 21:46:59 10° NW 21:54:08 68° SW 21:54:14 67° SW
NOSS 3-4 (A) 4.1 21:52:09 10° WSW 21:57:41 50° NW 22:03:50 10° NE
NOSS 3-4 (C) 4.1 21:52:15 10° WSW 21:57:48 50° NW 22:03:56 10° NE
Terra 3.5 22:02:35 29° NW 22:02:35 29° NW 22:05:23 10° NNW
Lacrosse 5 rocket 4.4 22:01:11 10° W 22:01:18 11° W 22:01:18 11° W
ATLAS 3B R/B 3.2 22:11:50 10° NW 22:19:02 59° NNE 22:19:02 59° NNE
Cosmos 1943 4.5 22:18:13 10° NW 22:21:36 36° NW 22:21:36 36° NW
SJ 16-02 4.2 22:25:40 10° NW 22:26:33 14° WNW 22:26:33 14° WNW
ATLAS CENTAUR R/B 4.2 22:21:33 10° W 22:32:22 46° NNW 22:34:17 37° NNE
USA 215 3.9 23:00:20 50° NNW 23:00:20 50° NNW 23:05:26 10° WNW
NOSS 3-1 (C) 4.3 22:58:23 10° NW 23:04:04 59° NNW 23:04:04 59° NNW
Cosmos 2344 4.0 23:00:39 10° NW 23:08:50 81° W 23:08:50 81° W
ATLAS 2AS CENTAUR R/B 3.6 23:32:18 48° NNE 23:32:18 48° NNE 23:37:28 10° NE
Cosmos 2263 Rocket 4.3 23:37:41 21° NW 23:37:41 21° NW 23:41:34 10° N
